Sioux Falls, SD

2:31 AM CDT on October 15, 2019 (GMT -0500)
Foss

Weather History for KFSD - August, 2019

Change the Weather History Date:

Sunday, August 11, 2019

  Actual Average Record
Temperature  
Mean Temperature 74 °F 72 °F  
Max Temperature 81 °F 83 °F 99 °F (1936)
Min Temperature 67 °F 61 °F 35 °F (1902)
Degree Days  
Heating Degree Days 0 0  
Month to date heating degree days 0 0  
Since 1 June heating degree days 20 59  
Since 1 July heating degree days 0 8  
Cooling Degree Days 9 7  
Month to date cooling degree days 100 83  
Year to date cooling degree days 628 510  
Since 1 June cooling degree days 613 474  
Growing Degree Days 24 (Base 50)    
Moisture  
Dew Point 67 °F    
Average Humidity 84    
Maximum Humidity 100    
Minimum Humidity 67    
Precipitation  
Precipitation 0.00 in 0.10 in 1.85 in (1926)
Month to date precipitation 0.39 1.11  
Year to date precipitation 27.58 17.45  
Snow  
Snow 0.00 in 0.00 in 0.00 in ()
Month to date snowfall 0.0 0.0  
Since 1 June snowfall T 0.0  
Since 1 July snowfall T 0.0  
Snow Depth 0.00 in    
Sea Level Pressure  
Sea Level Pressure 29.96 in    
Wind  
Wind Speed 8 mph (NE)    
Max Wind Speed 17 mph    
Max Gust Speed 22 mph    
Visibility 8 miles    
Events      
T = Trace of Precipitation, MM = Missing Value Source: NWS Daily Summary

Daily Weather History Graph

Daily Weather History Graph

Search for Another Location

Airport or City:

Astronomy

Aug. 11, 2019 Rise Set
Actual Time 6:27 AM CDT 8:36 PM CDT
Civil Twilight 5:55 AM CDT 9:07 PM CDT
Nautical Twilight 5:16 AM CDT 9:46 PM CDT
Astronomical Twilight 4:33 AM CDT 10:29 PM CDT
Moon 6:21 PM CDT (8/11) 2:44 AM CDT (8/11)
Length of Visible Light 15h 12m
Length of Day
14h 09m
Waxing Gibbous, 87% of the Moon is Illuminated
Aug 11
Waxing Gibbous
Aug 15
Full
Aug 23
Last Quarter
Aug 30
New
Sep 5
First Quarter

Hourly Weather History & Observations

Time (CDT) Temp. Heat Index Dew Point Humidity Pressure Visibility Wind Dir Wind Speed Gust Speed Precip Events Conditions
12:56 AM 71.1 °F - 69.1 °F 93% 29.94 in 9.0 mi NNW 5.8 mph - N/A   Clear
1:31 AM 71.1 °F - 69.1 °F 93% 29.96 in 7.0 mi North 6.9 mph - N/A   Scattered Clouds
1:40 AM 71.1 °F - 70.0 °F 96% 29.96 in 4.0 mi North 5.8 mph - N/A   Mostly Cloudy
1:48 AM 71.1 °F - 70.0 °F 96% 29.95 in 1.5 mi NNE 8.1 mph - N/A   Mostly Cloudy
1:56 AM 71.1 °F - 69.1 °F 93% 29.94 in 0.8 mi NNE 8.1 mph - N/A   Overcast
2:19 AM 71.1 °F - 70.0 °F 96% 29.97 in 1.8 mi North 5.8 mph - N/A   Overcast
2:28 AM 71.1 °F - 70.0 °F 96% 29.97 in 2.5 mi NNE 4.6 mph - N/A   Overcast
2:38 AM 71.1 °F - 70.0 °F 96% 29.97 in 3.0 mi NNE 4.6 mph - N/A   Overcast
2:56 AM 71.1 °F - 69.1 °F 93% 29.94 in 5.0 mi North 6.9 mph - N/A   Overcast
3:56 AM 70.0 °F - 69.1 °F 97% 29.94 in 6.0 mi NNE 11.5 mph - N/A   Overcast
4:34 AM 70.0 °F - 68.0 °F 93% 29.96 in 8.0 mi NE 5.8 mph - N/A   Overcast
4:56 AM 70.0 °F - 68.0 °F 93% 29.95 in 8.0 mi NE 6.9 mph - N/A   Overcast
5:56 AM 69.1 °F - 66.0 °F 90% 29.96 in 10.0 mi NE 5.8 mph - N/A   Overcast
6:56 AM 68.0 °F - 64.9 °F 90% 29.94 in 10.0 mi NNE 9.2 mph - N/A   Overcast
7:56 AM 68.0 °F - 64.9 °F 90% 29.96 in 10.0 mi NE 13.8 mph - N/A   Overcast
8:31 AM 66.9 °F - 64.9 °F 93% 29.99 in 8.0 mi NE 15.0 mph - N/A   Overcast
8:49 AM 68.0 °F - 64.9 °F 90% 30.00 in 10.0 mi ENE 10.4 mph - N/A   Overcast
8:56 AM 69.1 °F - 64.9 °F 87% 29.99 in 10.0 mi East 8.1 mph - N/A   Overcast
9:08 AM 69.1 °F - 64.9 °F 87% 30.01 in 10.0 mi East 8.1 mph - N/A   Overcast
10:25 AM 71.1 °F - 64.9 °F 81% 30.03 in 10.0 mi East 6.9 mph - N/A   Overcast
10:56 AM 71.1 °F - 64.0 °F 78% 30.03 in 10.0 mi East 5.8 mph - N/A   Overcast
11:56 AM 71.1 °F - 64.0 °F 78% 30.04 in 10.0 mi SE 5.8 mph - N/A   Overcast
12:56 PM 75.0 °F - 64.9 °F 71% 30.02 in 10.0 mi Variable 4.6 mph - N/A   Mostly Cloudy
1:56 PM 77.0 °F - 66.9 °F 71% 29.99 in 10.0 mi NE 6.9 mph - N/A   Mostly Cloudy
2:38 PM 78.1 °F - 66.9 °F 68% 30.01 in 10.0 mi Calm Calm - N/A   Mostly Cloudy
2:56 PM 79.0 °F - 68.0 °F 69% 29.98 in 10.0 mi Calm Calm - N/A   Mostly Cloudy
3:56 PM 80.1 °F 82.7 °F 68.0 °F 67% 29.97 in 10.0 mi NE 8.1 mph - N/A   Scattered Clouds
4:56 PM 80.1 °F 82.7 °F 68.0 °F 67% 29.96 in 10.0 mi NE 4.6 mph - N/A   Scattered Clouds
5:56 PM 80.1 °F 82.9 °F 69.1 °F 69% 29.93 in 10.0 mi NNE 8.1 mph - N/A   Scattered Clouds
6:56 PM 79.0 °F - 68.0 °F 69% 29.91 in 10.0 mi East 8.1 mph - N/A   Scattered Clouds
7:56 PM 77.0 °F - 68.0 °F 74% 29.91 in 10.0 mi East 9.2 mph - N/A   Scattered Clouds
8:54 PM 75.2 °F - 68.0 °F 78% 29.94 in 10.0 mi East 5.8 mph - N/A   Mostly Cloudy
8:56 PM 75.0 °F - 68.0 °F 79% 29.92 in 10.0 mi East 5.8 mph - N/A   Mostly Cloudy
9:56 PM 73.9 °F - 68.0 °F 82% 29.93 in 10.0 mi East 10.4 mph - N/A   Scattered Clouds
10:04 PM 73.0 °F - 68.0 °F 84% 29.95 in 10.0 mi East 10.4 mph - N/A   Mostly Cloudy
10:56 PM 72.0 °F - 66.9 °F 84% 29.94 in 10.0 mi East 13.8 mph - N/A   Overcast
11:42 PM 71.1 °F - 66.0 °F 84% 29.95 in 10.0 mi East 12.7 mph - N/A   Overcast
11:56 PM 71.1 °F - 66.0 °F 84% 29.93 in 10.0 mi ESE 12.7 mph - N/A   Overcast